Find Starlink 33867

NORAD ID: 63795 Int'l Des: 2025-091 Owner: SPXS Country: US Constellation: starlink operational
LEOCIRCULAR

リアルタイム位置

3D地球を読み込み中...

Starlink 33867について

説明を読み込み中...

次回通過

Passes for default location (London). Set your location on the main map for personalized predictions.

高度履歴

Loading altitude history...

軌道要素

1 63795U 25091W 26125.59825455 .00030767 00000-0 11227-2 0 9994
2 63795 43.0031 91.3036 0000964 287.8763 72.1984 15.27587684 57607
Epoch: May 5, 2026 • Age: 16 hours

現在のステータス

高度 483.9 km
速度 7.63 km/s
衛星直下点 30.99°N, 169.31°E
打ち上げ日 May 2, 2025
運用期間 1 years
タイプ internet

技術仕様

分類 Payload
質量 575.00 kg
乾燥質量 530.00 kg
総質量 575.00 kg
長さ 0.30 m
直径 4.10 m
スパン 29.00 m
形状 Box + pan
製造者 SPXS
バスタイプ Starlink V2MO
フェーズステータス In Orbit
所有者/国 SPXS/US

Most Searched